Weather History for KOWB - February, 2012

Change the Weather History Date:

Thursday, February 16, 2012

  Actual Average Record
Temperature  
Mean Temperature 43 °F -  
Max Temperature 48 °F 48 °F 71 °F (2011)
Min Temperature 34 °F 28 °F -2 °F (1958)
Degree Days  
Heating Degree Days 22    
Moisture  
Dew Point 43 °F    
Average Humidity 92    
Maximum Humidity 100    
Minimum Humidity 71    
Precipitation  
Precipitation 0.01 in - - ()
Sea Level Pressure  
Sea Level Pressure 30.09 in    
Wind  
Wind Speed 6 mph (West)    
Max Wind Speed 14 mph    
Max Gust Speed 17 mph    
Visibility 6 miles    
Events Rain    
Averages and records for this station are not official NWS values.
T = Trace of Precipitation, MM = Missing Value Source: NWS Daily Summary

Daily Weather History Graph

Daily Weather History Graph

Search for Another Location

Airport or City:

Trip Planner

Search our weather history database for the weather conditions in past years. The results will help you decide how hot, cold, wet, or windy it might be!

Date:

Astronomy

Feb. 16, 2012 Rise Set
Actual Time 6:37 AM CST 5:28 PM CST
Civil Twilight 6:10 AM CST 5:55 PM CST
Nautical Twilight 5:40 AM CST 6:25 PM CST
Astronomical Twilight 5:09 AM CST 6:56 PM CST
Moon 2:29 AM CST (2/16) 12:23 PM CST (2/16)
Length of Visible Light 11h 44m
Length of Day
10h 50m
Waning Crescent, 28% of the Moon is Illuminated
Feb 16
Waning Crescent
Feb 21
New
Feb 29
First Quarter
Mar 8
Full
Mar 14
Last Quarter

Hourly Weather History & Observations

Time (CST) Temp. Windchill Dew Point Humidity Pressure Visibility Wind Dir Wind Speed Gust Speed Precip Events Conditions
12:56 AM 45.9 °F 41.2 °F 45.0 °F 97% 29.99 in 6.0 mi SE 9.2 mph - 0.01 in Rain Light Rain
1:03 AM 46.4 °F 42.4 °F 44.6 °F 93% 29.99 in 6.0 mi SE 8.1 mph - 0.00 in Rain Light Rain
1:25 AM 46.4 °F 43.5 °F 44.6 °F 93% 29.99 in 6.0 mi SE 5.8 mph - 0.00 in Rain Light Rain
1:56 AM 45.9 °F 42.9 °F 45.9 °F 100% 29.97 in 5.0 mi SE 5.8 mph - 0.00 in Rain Light Rain
2:24 AM 46.4 °F 43.5 °F 46.4 °F 100% 29.97 in 6.0 mi SE 5.8 mph - N/A   Overcast
2:56 AM 45.9 °F 44.6 °F 45.9 °F 100% 29.97 in 5.0 mi SSE 3.5 mph - 0.00 in   Overcast
3:39 AM 46.4 °F - 46.4 °F 100% 29.97 in 5.0 mi Calm Calm - N/A   Overcast
3:56 AM 45.9 °F 43.6 °F 45.9 °F 100% 29.98 in 2.5 mi SSE 4.6 mph - N/A   Overcast
4:25 AM 46.4 °F 45.2 °F 46.4 °F 100% 29.98 in 2.0 mi South 3.5 mph - 0.00 in Rain Light Rain
4:45 AM 46.4 °F - 46.4 °F 100% 29.98 in 1.8 mi Calm Calm - 0.00 in   Overcast
4:56 AM 45.9 °F - 45.9 °F 100% 29.99 in 1.5 mi Calm Calm - 0.00 in   Overcast
5:02 AM 46.4 °F - 46.4 °F 100% 29.98 in 1.0 mi Calm Calm - N/A   Overcast
5:16 AM 46.4 °F - 46.4 °F 100% 29.99 in 1.0 mi Calm Calm - N/A   Overcast
5:56 AM 45.9 °F - 45.9 °F 100% 30.00 in 1.0 mi Calm Calm - N/A   Overcast
6:56 AM 46.9 °F - 46.9 °F 100% 30.04 in 1.0 mi West 9.2 mph - N/A   Overcast
7:21 AM 46.4 °F 41.5 °F 46.4 °F 100% 30.04 in 1.5 mi West 10.4 mph - N/A   Overcast
7:56 AM 46.9 °F - 46.9 °F 100% 30.08 in 4.0 mi WNW 13.8 mph - N/A   Overcast
8:56 AM 48.9 °F - 46.9 °F 93% 30.10 in 9.0 mi WNW 12.7 mph - N/A   Overcast
9:56 AM 48.2 °F - 46.4 °F 93% 30.13 in 10.0 mi WNW 11.5 mph - N/A   Overcast
10:56 AM 48.9 °F - 45.9 °F 89% 30.15 in 10.0 mi WNW 11.5 mph 17.3 mph N/A   Overcast
11:56 AM 48.2 °F - 44.6 °F 87% 30.17 in 10.0 mi WNW 13.8 mph - N/A   Overcast
12:56 PM 47.8 °F - 45.0 °F 90% 30.15 in 10.0 mi WNW 11.5 mph - N/A   Overcast
1:56 PM 48.9 °F - 43.9 °F 83% 30.14 in 10.0 mi NW 9.2 mph 16.1 mph N/A   Overcast
2:56 PM 48.9 °F - 39.9 °F 71% 30.16 in 10.0 mi NW 13.8 mph - N/A   Overcast
3:56 PM 47.8 °F - 39.9 °F 74% 30.19 in 10.0 mi NW 10.4 mph - N/A   Overcast
4:56 PM 47.8 °F - 39.9 °F 74% 30.19 in 8.0 mi NNW 5.8 mph - N/A   Haze
5:56 PM 45.0 °F - 38.8 °F 79% 30.19 in 9.0 mi Calm Calm - N/A   Mostly Cloudy
6:56 PM 43.0 °F - 38.8 °F 85% 30.21 in 8.0 mi Calm Calm - N/A   Haze
7:56 PM 38.8 °F 36.5 °F 36.9 °F 93% 30.22 in 5.0 mi West 3.5 mph - N/A   Haze
8:56 PM 41.0 °F 39.0 °F 37.9 °F 89% 30.23 in 6.0 mi NNW 3.5 mph - N/A   Haze
9:56 PM 38.8 °F 35.4 °F 36.9 °F 93% 30.25 in 6.0 mi NNW 4.6 mph - N/A   Haze
10:56 PM 39.9 °F - 34.9 °F 82% 30.24 in 8.0 mi Calm Calm - N/A   Clear
11:56 PM 34.9 °F - 32.9 °F 92% 30.24 in 6.0 mi Calm Calm - N/A   Clear